NOAA 17 DEB, 48722

Orbit data source: Space-Track

NOAA 17 DEB, 48722 is space debris in SSO originally from a launch on Mon, 24 Jun 2002 UTC launched from the Air Force Western Test Range (AFWTR). Debris objects in space refer to the collection of defunct objects orbiting the Earth. Examples of debris include non-operational satellites, rocket bodies, and fragments generated from explosions, collisions, or faulty payload assembly.

Loading next visibility...
Identifier
48722, 2002-032BF
Orbit
SSO
Country
Flag of USUS
Related business
Manufacturer
Unknown
Mission
Spacecraft
Bus & Motor
Unknown
Mass
Unknown
Launch date (UTC)
2002-06-24 (23 years ago)
Launch vehicle
Unknown
Launch site
Air Force Western Test Range (AFWTR)
Object type
Payload
Rocket body
Debris
Shape & HBR
Unknown shape, 0.1 m
Radar Cross Section
Small (<0.1 m²)

Expand to show TLE details & history
Last TLE update: 1 day ago

TLE from 1 day ago
0 NOAA 17 DEB
1 48722U 02032BF  25349.26505334  .00016700  00000-0  20962-2 0  9996
2 48722  98.7087   2.1181 0011730 157.8277 202.3444 14.82187136250609
Epoch: 2025-12-15T06:21Z
TLE epoch observation values (Epoch: 2025-12-15T06:21:40.608Z)
Latitude
0.00005°
Longitude
-177.46721°
Altitude
633.026 km
Speed
7.538 km/s
True Right ascension
00h 08m 28s
True Declination
0° 00' 00"
Sunlit
Object was in daylight at epoch
Visualization orbit readout
Latitude
Unknown
Longitude
Unknown
Altitude
Unknown
Speed
Unknown
Apparent Right ascension
Unknown
Apparent Declination
Unknown
Sunlit
N/A
Visualization observer readout
Local Sidereal Time
09:25:59
Azimuth
Unknown
Elevation
Unknown
Doppler factor
Unknown
Orbital elements
Apogee altitude
627.713 km
Perigee altitude
611.297 km
Semi-major axis
6,997.642 km
Eccentricity
0.00117
Inclination
98.7087°
RAAN
2.1181°
Arg. of periapsis
157.8277°
True anomaly
202.29337°
Mean anomaly
202.3444°
Eccentric anomaly
202.31888°
Mean motion
3.70779 °/min
Orbital period
97.09 mins
BSTAR
0.0020962
Loading maneuver chart data...
Computing Atmospheric mass density...
Loading historical data...
Loading historical data...
Loading historical data...
Loading historical data...
Loading historical data...
Loading historical data...
Loading historical data...

Documentation

Showing up to 5 results
|